JZA614 CYUL-KBOS

Flight info

Callsign JZA614
Flight time N/A
Altitude 31000
Route VIRKA DCT TEMPR DCT ENE OOSHN5
Aircraft E75L/M-SDE3GILORVW/S

Departure

Time 2026-05-06 23:57
Airport Montreal / Pierre Elliott Trudeau International Airport (CYUL)

Arrival

Time N/A
Airport Boston Logan International Airport (KBOS)
Time Latitude Longitude Altitude Speed Heading
2026-05-06 23:29 45.45592 -73.75478 102 ft 0 kts 147°
2026-05-06 23:42 45.45598 -73.75484 105 ft 3 kts 147°
2026-05-06 23:42 45.45614 -73.75499 103 ft 3 kts 147°
2026-05-06 23:43 45.45629 -73.75513 105 ft 3 kts 147°
2026-05-06 23:43 45.45643 -73.75526 105 ft 0 kts 147°
2026-05-06 23:46 45.45643 -73.75524 104 ft 1 kts 116°
2026-05-06 23:47 45.45646 -73.75514 105 ft 3 kts 43°
2026-05-06 23:47 45.45704 -73.75480 104 ft 12 kts 24°
2026-05-06 23:47 45.45763 -73.75506 105 ft 10 kts 282°
2026-05-06 23:47 45.45742 -73.75626 105 ft 18 kts 253°
2026-05-06 23:48 45.45722 -73.75796 104 ft 18 kts 275°
2026-05-06 23:48 45.45737 -73.75960 104 ft 17 kts 292°
2026-05-06 23:48 45.45839 -73.76036 103 ft 19 kts 352°
2026-05-06 23:48 45.45971 -73.76056 103 ft 16 kts
2026-05-06 23:49 45.46055 -73.75991 101 ft 15 kts 67°
2026-05-06 23:49 45.46127 -73.75911 101 ft 13 kts 79°
2026-05-06 23:49 45.46129 -73.75743 103 ft 21 kts 87°
2026-05-06 23:49 45.46135 -73.75539 102 ft 22 kts 89°
2026-05-06 23:50 45.46141 -73.75320 106 ft 22 kts 88°
2026-05-06 23:50 45.46153 -73.74904 108 ft 20 kts 87°
2026-05-06 23:50 45.46159 -73.74705 109 ft 21 kts 87°
2026-05-06 23:51 45.46122 -73.74515 106 ft 18 kts 102°
2026-05-06 23:51 45.46130 -73.74334 106 ft 19 kts 86°
2026-05-06 23:51 45.46137 -73.74134 105 ft 22 kts 87°
2026-05-06 23:51 45.46202 -73.73972 104 ft 20 kts 43°
2026-05-06 23:52 45.46303 -73.73843 104 ft 20 kts 43°
2026-05-06 23:52 45.46406 -73.73706 108 ft 20 kts 42°
2026-05-06 23:52 45.46472 -73.73620 110 ft 19 kts 42°
2026-05-06 23:52 45.46577 -73.73484 109 ft 21 kts 43°
2026-05-06 23:53 45.46720 -73.73297 110 ft 19 kts 43°
2026-05-06 23:53 45.46786 -73.73209 111 ft 19 kts 43°
2026-05-06 23:53 45.46883 -73.73082 112 ft 20 kts 43°
2026-05-06 23:53 45.46982 -73.72951 115 ft 19 kts 43°
2026-05-06 23:54 45.47083 -73.72818 118 ft 21 kts 44°
2026-05-06 23:54 45.47188 -73.72682 117 ft 20 kts 41°
2026-05-06 23:54 45.47293 -73.72543 115 ft 20 kts 43°
2026-05-06 23:54 45.47394 -73.72408 116 ft 20 kts 43°
2026-05-06 23:55 45.47501 -73.72268 118 ft 20 kts 42°
2026-05-06 23:55 45.47607 -73.72131 121 ft 21 kts 44°
2026-05-06 23:55 45.47711 -73.71996 126 ft 20 kts 43°
2026-05-06 23:55 45.47807 -73.71867 125 ft 17 kts 50°
2026-05-06 23:56 45.47770 -73.71742 122 ft 17 kts 132°
2026-05-06 23:56 45.47688 -73.71644 120 ft 14 kts 176°
2026-05-06 23:56 45.47615 -73.71718 122 ft 15 kts 223°
2026-05-06 23:56 45.47401 -73.71998 119 ft 79 kts 223°
2026-05-06 23:57 45.46816 -73.72761 140 ft 143 kts 222°
2026-05-06 23:57 45.46048 -73.73769 813 ft 154 kts 223°
2026-05-06 23:57 45.45250 -73.74830 1693 ft 161 kts 225°
2026-05-06 23:57 45.44380 -73.76004 2507 ft 182 kts 226°
2026-05-06 23:58 45.43404 -73.77328 3346 ft 209 kts 227°
2026-05-06 23:58 45.42248 -73.78724 4508 ft 229 kts 207°
2026-05-06 23:58 45.40593 -73.78965 5680 ft 254 kts 171°
2026-05-06 23:58 45.38890 -73.78084 6855 ft 270 kts 156°
2026-05-06 23:59 45.37254 -73.76670 8198 ft 281 kts 146°
2026-05-06 23:59 45.35844 -73.74625 9509 ft 297 kts 133°
2026-05-06 23:59 45.34623 -73.72204 10567 ft 313 kts 130°
2026-05-06 23:59 45.33361 -73.69613 11699 ft 316 kts 130°
2026-05-07 00:00 45.32096 -73.66986 12799 ft 322 kts 129°
2026-05-07 00:00 45.30984 -73.64254 13635 ft 324 kts 123°
2026-05-07 00:00 45.29927 -73.61398 14242 ft 321 kts 124°
2026-05-07 00:00 45.28800 -73.58623 14772 ft 326 kts 129°
2026-05-07 00:01 45.27517 -73.55914 15292 ft 333 kts 132°
2026-05-07 00:01 45.26136 -73.53227 15825 ft 339 kts 135°
2026-05-07 00:01 45.24592 -73.50741 16362 ft 342 kts 141°
2026-05-07 00:01 45.22944 -73.48268 16917 ft 348 kts 142°
2026-05-07 00:02 45.21233 -73.45764 17488 ft 355 kts 142°
2026-05-07 00:02 45.19511 -73.43251 18051 ft 354 kts 142°
2026-05-07 00:02 45.17793 -73.40748 18597 ft 354 kts 142°
2026-05-07 00:02 45.16085 -73.38264 19133 ft 358 kts 142°
2026-05-07 00:03 45.14336 -73.35721 19736 ft 360 kts 142°
2026-05-07 00:03 45.12651 -73.33032 20349 ft 368 kts 137°
2026-05-07 00:03 45.11030 -73.30193 20987 ft 372 kts 137°
2026-05-07 00:03 45.09377 -73.27344 21623 ft 374 kts 137°
2026-05-07 00:04 45.07588 -73.24776 22262 ft 369 kts 145°
2026-05-07 00:04 45.05682 -73.22334 22924 ft 370 kts 146°
2026-05-07 00:04 45.03781 -73.19847 23576 ft 373 kts 143°
2026-05-07 00:04 45.01946 -73.17231 24147 ft 376 kts 142°
2026-05-07 00:05 45.00148 -73.14516 24733 ft 380 kts 138°
2026-05-07 00:05 44.98445 -73.11624 25330 ft 383 kts 137°
2026-05-07 00:05 44.96747 -73.08702 25913 ft 386 kts 137°
2026-05-07 00:05 44.95042 -73.05755 26435 ft 388 kts 136°
2026-05-07 00:06 44.93346 -73.02823 26941 ft 391 kts 136°
2026-05-07 00:06 44.91612 -72.99828 27387 ft 394 kts 136°
2026-05-07 00:06 44.89861 -72.96802 27832 ft 397 kts 136°
2026-05-07 00:06 44.88121 -72.93800 28277 ft 400 kts 136°
2026-05-07 00:07 44.86346 -72.90741 28740 ft 403 kts 136°
2026-05-07 00:07 44.84561 -72.87665 29214 ft 405 kts 136°
2026-05-07 00:07 44.82789 -72.84617 29673 ft 407 kts 136°
2026-05-07 00:07 44.80985 -72.81517 30131 ft 409 kts 136°
2026-05-07 00:08 44.79170 -72.78400 30490 ft 411 kts 136°
2026-05-07 00:08 44.77341 -72.75266 30741 ft 416 kts 136°
2026-05-07 00:08 44.73597 -72.68861 30843 ft 435 kts 136°
2026-05-07 00:09 44.69667 -72.62143 30836 ft 445 kts 136°
2026-05-07 00:09 44.65761 -72.55487 30848 ft 442 kts 136°
2026-05-07 00:10 44.61854 -72.48847 30841 ft 443 kts 136°
2026-05-07 00:10 44.57915 -72.42167 30834 ft 443 kts 136°
2026-05-07 00:11 44.53990 -72.35525 30838 ft 444 kts 136°
2026-05-07 00:11 44.50042 -72.28882 30825 ft 442 kts 138°
2026-05-07 00:12 44.45722 -72.22817 30818 ft 445 kts 135°
2026-05-07 00:12 44.42056 -72.15816 30824 ft 449 kts 131°
2026-05-07 00:13 44.38212 -72.08974 30824 ft 445 kts 136°
2026-05-07 00:13 44.34257 -72.02356 30816 ft 445 kts 136°
2026-05-07 00:14 44.30262 -71.95699 30815 ft 446 kts 136°
2026-05-07 00:14 44.26288 -71.89086 30799 ft 446 kts 136°
2026-05-07 00:15 44.22306 -71.82476 30807 ft 447 kts 136°
2026-05-07 00:15 44.18291 -71.75824 30793 ft 447 kts 136°
2026-05-07 00:16 44.14293 -71.69216 30804 ft 448 kts 136°
2026-05-07 00:16 44.10256 -71.62557 30807 ft 448 kts 136°
2026-05-07 00:17 44.06238 -71.55945 30781 ft 449 kts 136°
2026-05-07 00:17 44.02199 -71.49314 30764 ft 450 kts 137°
2026-05-07 00:18 43.98151 -71.42685 30737 ft 451 kts 137°
2026-05-07 00:18 43.94078 -71.36027 30731 ft 452 kts 137°
2026-05-07 00:19 43.90001 -71.29347 30660 ft 454 kts 136°
2026-05-07 00:19 43.87931 -71.26129 30540 ft 450 kts 140°
2026-05-07 00:19 43.85775 -71.22967 30418 ft 450 kts 140°
2026-05-07 00:20 43.83610 -71.19842 30287 ft 449 kts 141°
2026-05-07 00:20 43.81434 -71.16711 30165 ft 450 kts 141°
2026-05-07 00:20 43.79260 -71.13588 30046 ft 450 kts 141°
2026-05-07 00:20 43.77087 -71.10469 29927 ft 450 kts 141°
2026-05-07 00:21 43.74938 -71.07388 29821 ft 450 kts 141°
2026-05-07 00:21 43.72759 -71.04269 29683 ft 450 kts 141°
2026-05-07 00:21 43.70572 -71.01137 29543 ft 449 kts 141°